Regional Weather Roundup
Issued by NWS

Home | Current Version | Previous Version | Text Only | Print | Product List | Glossary On
Versions: 1 2 3 4 5 6 7 8 9 10 11 12 13 14 15 16 17 18 19 20 21 22 23 24 25 26 27 28 29 30 31 32 33 34 35 36 37 38 39 40 41 42 43 44 45 46 47 48 49 50
000
ASUS44 KOUN 211310
RWROK

WEATHER ROUNDUP FOR OKLAHOMA
NATIONAL WEATHER SERVICE NORMAN OK
800 AM CDT TUE OCT 21 2014

NOTE: "FAIR" INDICATES FEW OR NO CLOUDS BELOW 12,000 FEET WITH NO
      SIGNIFICANT WEATHER AND/OR OBSTRUCTIONS TO VISIBILITY.

OKZ001>007-009>012-014-015-017-211400-
NORTHWEST OKLAHOMA AND THE PANHANDLE

CITY           SKY/WX    TMP DP  RH WIND       PRES   REMARKS
GAGE           CLEAR     57  55  93 S6        30.07R
ENID/WOODRING  MOCLDY    57  57 100 CALM      30.06R FOG
$$

OKZ016-021>023-033>039-044-045-211400-
SOUTHWEST OKLAHOMA

CITY           SKY/WX    TMP DP  RH WIND       PRES   REMARKS
LAWTON/REGL    CLEAR     54  52  93 CALM      30.09R FOG
LAWTON/FT SILL CLEAR     57  57 100 CALM      30.08R
FREDERICK      CLEAR     57  55  93 E6        30.05S
CLINTON        CLEAR     61  55  81 S9        30.10R
HOBART         CLEAR     58  55  90 S9        30.08S
ALTUS AFB      CLEAR     55  55 100 E3        30.08R
$$

OKZ018>020-024>031-211400-
CENTRAL OKLAHOMA

CITY           SKY/WX    TMP DP  RH WIND       PRES   REMARKS
OKLAHOMA CITY  PTCLDY    60  57  89 S6        30.08R
OKC/WILEY POST CLEAR     60  57  89 SW6       30.08R
OKC/TINKER AFB MOCLDY    59  58  96 S8        30.08S FOG
STILLWATER     CLEAR     59  57  93 CALM      30.07S FOG
GUTHRIE        CLEAR     61  59  93 SE6       30.07S
$$

OKZ008-013-054>072-211400-
NORTHEAST OKLAHOMA

CITY           SKY/WX    TMP DP  RH WIND       PRES   REMARKS
TULSA          MOCLDY    58  57  97 E5        30.08R FOG
TULSA/JONES    MOCLDY    57  56  96 CALM      30.10R FOG
PONCA CITY     MOCLDY    61  58  90 SE6       30.07S FOG
BARTLESVILLE   FOG       53  53 100 CALM      30.11R VSB 1/4
MUSKOGEE       FOG       56  56 100 SE5       30.11R VSB 3/4
$$

OKZ032-040>043-046>053-073>077-211400-
SOUTH CENTRAL/SOUTHEAST OKLAHOMA

CITY           SKY/WX    TMP DP  RH WIND       PRES   REMARKS
ARDMORE/DWNTWN CLEAR     54  54 100 CALM      30.09R FOG
MCALESTER      PTCLDY    60  58  92 CALM      30.10R FOG
$$



USA.gov is the U.S. government's official web portal to all federal, state and local government web resources and services.